Regional Weather Roundup
Issued by NWS Grand Forks, ND

Home | Current Version | Previous Version | Graphics & Text | Print | Product List | Glossary Off
Versions: 1 2 3 4 5 6 7 8 9 10 11 12 13 14 15 16 17 18 19 20 21 22 23 24 25 26 27 28 29 30 31 32 33 34 35 36 37 38 39 40 41 42 43 44 45 46 47 48 49 50

000
ASUS43 KFGF 280610
RWRFGF
PRAIRIE TO PINES  WEATHER ROUNDUP
NATIONAL WEATHER SERVICE EASTERN NORTH DAKOTA/GRAND FORKS ND
100 AM CDT SAT MAR 28 2015

 **SATELLITE DATA USED TO AUGMENT SKY COVER AT AUTOMATED STATIONS**
 *****  WEATHER ACROSS EASTERN NORTH DAKOTA  *****

CITY           SKY/WX    TMP DP  RH WIND       PRES   REMARKS
GRAND FORKS    CLEAR     25  21  85 S5        30.11S WCI  19
6HR MIN TEMP:  23; 6HR MAX TEMP:  33;

GRAND FRKS AFB NOT AVBL
GRAND FRKS NWS   N/A     25 N/A N/A S3          N/A
DEVILS LAKE    CLOUDY    28  25  86 SE16      30.03S WCI  17
6HR MIN TEMP:  28; 6HR MAX TEMP:  28;

FARGO          CLOUDY    32  18  56 S8        30.11F WCI  25
WAHPETON ARPT  CLOUDY    32  19  59 SE7       30.12S
$$

 ***** WEATHER ACROSS CENTRAL AND WESTERN NORTH DAKOTA  *****

CITY           SKY/WX    TMP DP  RH WIND       PRES   REMARKS
BISMARCK       PTCLDY    30  28  92 E7        29.96S WCI  23
6HR MIN TEMP:  30; 6HR MAX TEMP:  50;

MINOT          CLOUDY    32  29  88 E3        29.96R
6HR MIN TEMP:  32; 6HR MAX TEMP:  45;

JAMESTOWN      CLOUDY    29  28  96 SE14      30.02F FOG     WCI  18
6HR MIN TEMP:  29; 6HR MAX TEMP:  30; 6HR PCP: TRACE;

MINOT AFB      MOCLDY    32  32  99 E7        29.95S
GARRISON         N/A     33  30  88 CALM      29.95R
WILLISTON      CLEAR     37  34  89 CALM      29.91S
6HR MIN TEMP:  37; 6HR MAX TEMP:  60;

DICKINSON      CLEAR     33  28  81 S6        29.91S
6HR MIN TEMP:  33; 6HR MAX TEMP:  60;

HETTINGER      CLEAR     31  27  85 CALM      29.96S
6HR MIN TEMP:  31; 6HR MAX TEMP:  63;

$$

 *****  OTHER AIRPORT OBSERVATIONS IN OUR AREA  *****

CITY           SKY/WX    TMP DP  RH WIND       PRES   REMARKS
WALHALLA       NOT AVBL
GRAFTON AIRPOR NOT AVBL
VALLEY CITY AR CLOUDY    27  27 100 SE10      30.06F WCI  17
CANDO          NOT AVBL
CAVALIER APRT  MOCLDY    28  27  93 S7        30.09F WCI  21
GWINNER        CLOUDY    32  32 100 SE12        N/A  WCI  23
SHEYENNE NWR     N/A     28  24  86 SE7       29.95S WCI  21
ROLLA          CLOUDY    27  27 100 S15       30.01S FOG     WCI  15
 ***** THE ABOVE OBSERVATIONS ARE NON NWS ARE NOT QUALITY
       CONTROLLED AND MAY MIS-REPORT RAIN FOR SNOW...
$$

  *****  WEATHER ACROSS NORTHERN MINNESOTA  *****

CITY           SKY/WX    TMP DP  RH WIND       PRES   REMARKS
FLAG ISLAND    CLEAR     16  10  79 CALM      30.12S
WARROAD        CLEAR     19  16  86 CALM      30.12F
ROSEAU         CLEAR     25  19  80 CALM      30.12F
HALLOCK        CLEAR     21  19  93 S7        30.11F WCI  13
THF RVR FALLS  CLEAR     27  18  69 SE5       30.12R WCI  21
6HR MIN TEMP:  25; 6HR MAX TEMP:  30;

BAUDETTE       CLEAR     19  14  81 E3        30.11S
6HR MIN TEMP:  18; 6HR MAX TEMP:  32;

WASKISH        FAIR      18  14  86 CALM      30.13R
CROOKSTON      CLEAR     21  18  86 SE6       30.13S WCI  14
STEPHEN NDAWN    N/A     21  19  93 SE3         N/A
GREENBUSH NDAW   N/A     25  21  86 E5          N/A  WCI  19
$$
  *****  WEATHER ACROSS CENTRAL AND WEST MINNESOTA  *****

CITY           SKY/WX    TMP DP  RH WIND       PRES   REMARKS
FOSSTON        FAIR      21  12  68 CALM      30.12S
BEMIDJI        FAIR      20  12  72 CALM      30.11S
PARK RAPIDS    CLEAR     25  12  58 SE3       30.11R
6HR MIN TEMP:  25; 6HR MAX TEMP:  34;

ELBOW LAKE     CLOUDY    28  19  68 SE7       30.12S WCI  21
6HR MIN TEMP:  28; 6HR MAX TEMP:  32;

WADENA         CLEAR     21  14  73 CALM      30.12S
DETROIT LAKES  CLEAR     27  16  63 S3        30.12S
MOORHEAD       CLOUDY    30  21  69 SE6       30.12S WCI  24
FERGUS FALLS   CLOUDY    28  16  59 S7        30.14F WCI  21
MORRIS MN      CLOUDY    28  23  80 SE9       30.12S WCI  20
STAPLES        MOCLDY    23  12  63 CALM      30.13S
$$
  *****  WEATHER ELSEWHERE ACROSS MINNESOTA  *****

CITY           SKY/WX    TMP DP  RH WIND       PRES   REMARKS
DULUTH         FAIR      20  12  71 E3        30.15F
6HR MIN TEMP:  19; 6HR MAX TEMP:  25;

INTRNTL FALLS  CLEAR     16  10  77 CALM      30.13R
6HR MIN TEMP:  15; 6HR MAX TEMP:  32;

ELY            CLEAR     14   7  73 SE5       30.15S WCI   6
CLOQUET        CLEAR     19  14  79 CALM      30.15F
WHEATON        CLOUDY    28  25  86 SE5       30.14S WCI  23
BRAINERD       CLEAR     19  14  81 CALM      30.15R
6HR MIN TEMP:  19; 6HR MAX TEMP:  33;

HIBBING        CLEAR     14   4  64 CALM      30.15R
6HR MIN TEMP:  13; 6HR MAX TEMP:  30;

ALEXANDRIA     PTCLDY    25  15  66 SE7       30.13S WCI  17
6HR MIN TEMP:  25; 6HR MAX TEMP:  31;

SAINT CLOUD    CLOUDY    24  14  65 CALM      30.16R
6HR MIN TEMP:  24; 6HR MAX TEMP:  32;

MINNEAPOLIS    MOCLDY    25   9  50 SE5       30.18F WCI  19
6HR MIN TEMP:  25; 6HR MAX TEMP:  32;

$$

  *****  WEATHER ACROSS SOUTH DAKOTA  *****

CITY           SKY/WX    TMP DP  RH WIND       PRES   REMARKS
SIOUX FALLS    CLOUDY    30  23  75 SE9       30.07F WCI  22
6HR MIN TEMP:  30; 6HR MAX TEMP:  33;

BROOKINGS      NOT AVBL
WATERTOWN      CLOUDY    28  24  85 S12       30.05S WCI  18
6HR MIN TEMP:  28; 6HR MAX TEMP:  30;

HURON          CLEAR     30  26  85 SE8       30.03S WCI  22
6HR MIN TEMP:  30; 6HR MAX TEMP:  32;

SISSETON         N/A     29  26  89 S7        30.10R WCI  22
ABERDEEN       CLOUDY    32  27  81 SE7       30.04S
6HR MIN TEMP:  32; 6HR MAX TEMP:  32;

MITCHELL       PTCLDY    29  25  85 SE9       30.04F WCI  20
PIERRE         PTCLDY    31  28  89 SE7       29.96S WCI  24
6HR MIN TEMP:  30; 6HR MAX TEMP:  45;

MOBRIDGE       CLEAR     29  26  89 E9        29.95R WCI  20
RAPID CITY     CLEAR     44  33  65 NE12      29.96R
6HR MIN TEMP:  43; 6HR MAX TEMP:  66;

$$

  *****  SOME WEATHER IN NEARBY STATES *****

CITY           SKY/WX    TMP DP  RH WIND       PRES   REMARKS
GLASGOW MT     PTCLDY    44  34  67 E10       29.85S
6HR MIN TEMP:  42; 6HR MAX TEMP:  68;

GREAT FALLS MT CLOUDY    52  34  50 S9        29.89F
6HR MIN TEMP:  49; 6HR MAX TEMP:  71;

CHEYENNE WY    CLEAR     45  25  45 W10       30.12F
6HR MIN TEMP:  45; 6HR MAX TEMP:  64;

SCOTTSBLUFF NE CLEAR     45  31  58 NW9       30.02F
6HR MIN TEMP:  43; 6HR MAX TEMP:  69;

OMAHA NE       CLOUDY    37  21  52 SE10      30.10R
6HR MIN TEMP:  37; 6HR MAX TEMP:  38;

DES MOINES IA  CLOUDY    34  11  38 SE7       30.15S
6HR MIN TEMP:  34; 6HR MAX TEMP:  39;

DAVENPORT IA   CLEAR     23  12  62 SE3       30.21F
6HR MIN TEMP:  22; 6HR MAX TEMP:  33;

CHICAGO IL     PTCLDY    22  14  71 N6        30.21S WCI  14
6HR MIN TEMP:  22; 6HR MAX TEMP:  26;

EAU CLAIRE WI  PTCLDY    22  11  62 S5        30.19S WCI  16
6HR MIN TEMP:  22; 6HR MAX TEMP:  33;

LA CROSSE WI   CLEAR     24  13  62 CALM      30.21S
6HR MIN TEMP:  22; 6HR MAX TEMP:  34;

$$

  *****  SOME NATIONAL WEATHER *****

CITY           SKY/WX    TMP DP  RH WIND       PRES   REMARKS
LA GUARDIA NY  CLOUDY    39  25  57 N15       29.78R
6HR MIN TEMP:  39; 6HR MAX TEMP:  45;

RALEIGH NC     CLOUDY    41  39  93 CALM      29.85S
6HR MIN TEMP:  40; 6HR MAX TEMP:  42; 6HR PCP: TRACE;

ATLANTA GA     PTCLDY    42  31  64 NW13      30.02R
6HR MIN TEMP:  42; 6HR MAX TEMP:  52;

NEW ORLEANS LA PTCLDY    57  39  51 NE9       30.17R
6HR MIN TEMP:  57; 6HR MAX TEMP:  65;

OKLAHOMA CITY  MOCLDY    42  37  82 S6        30.08F
6HR MIN TEMP:  42; 6HR MAX TEMP:  56;

ALBUQUERQUE NM CLEAR     61  16  17 SW6       30.20R
6HR MIN TEMP:  61; 6HR MAX TEMP:  76;

SALT LAKE CITY CLEAR     56  35  45 SE7       30.14S
6HR MIN TEMP:  56; 6HR MAX TEMP:  71;




USA.gov is the U.S. government's official web portal to all federal, state and local government web resources and services.